User: anonymous   Login
Location: Unspecified
(0.0000°N, 0.0000°E)
Time: 02:40:59
(UTC+01:00)
Language:

NATO 3D Rocket - Orbit

View from above orbital plane
View from above orbital plane
View from above satellite
View from above satellite

Ground track
Ground track

The orbit data is extracted from the following two-line orbital elements,

1 15392U 84115B   18053.87148378 +.00000180 +00000-0 +11839-4 0  9997
2 15392 021.4976 245.6110 1034350 273.8798 074.4169 12.45559727497503
Epoch (UTC): 22 February 2018 20:54:56
Eccentricity: 0.1034350
inclination: 21.4976°
perigee height: 670 km
apogee height: 2296 km
right ascension of ascending node: 245.6110°
argument of perigee: 273.8798°
revolutions per day: 12.45559727
mean anomaly at epoch: 74.4169°
orbit number at epoch: 49750

The dashed part of the orbit path shows where the satellite is in the earth's shadow,  

DLR